SCP
0 0 0 0 0 0 -0 -0 -0 -0 -0 -0 -0 -0 -0 -0 -0 -0 0 0 0 0 0 0 0 0 0 0 0 0 0 0 0 0 0 0 0 0 0 0 0 0 0 0 0 0 0 0 0
0 0 0 0 0 0 -0 -0 -0 -0 -0 -0 -0 -0 -0 -0 -0 -0 0 0 0 0 0 0 0 0 0 0 0 0 0 0 0 0 0 0 0 0 0 0 0 0 0 0 0 0 0 0 0
0 0 0 0 0 0 -0 -0 -0 -0 -0 -0 -0 -0 -0 -0 -0 -0 0 0 0 0 0 0 0 0 0 0 0 0 0 0 0 0 0 0 0 0 0 0 0 0 0 0 0 0 0 0 0
0 0 0 0 0 0 -0 -0 -0 -0 -0 -0 -0 -0 -0 -0 -0 -0 0 0 0 0 0 0 0 0 0 0 0 0 0 0 0 0 0 0 0 0 0 0 0 0 0 0 0 0 0 0 0
0 -0 0 0 0 0 -0 -0 -0 -0 -0 -0 -0 -0 -0 -0 -0 0 0 0 0 0 0 0 0 0 0 0 0 0 0 0 0 0 0 0 0 0 0 0 0 0 0 0 0 0 0 0 0
0 -0 0 0 0 0 -0 -0 -0 -0 -0 -0 -0 -0 -0 -0 -0 0 0 0 0 0 0 0 0 0 0 0 0 0 0 0 0 0 0 0 0 0 0 0 0 0 0 0 0 0 0 0 0
0 0 0 0 0 0 -0 -0 -0 -0 -0 -0 -0 -0 0 0 0 0 0 0 0 0 0 0 0 0 0 0 0 0 0 0 0 0 0 0 0 0 0 0 0 0 0 0 0 0 0 0 0
0 0 0 0 0 0 0 -0 -0 -0 0 0 0 0 0 0 0 0 0 -0 -0 -0 0 0 0 0 0 0 0 0 0 0 0 0 0 0 0 0 0 0 0 0 0 0 0 0 0 0 0
0 0 0 0 0 0 0 0 0 0 0 0 0 0 0 0 0 0 0 0 0 -0 -0 -0 0 0 0 0 0 0 0 0 0 0 0 0 0 0 0 0 1 0 0 0 0 0 0 0 0
0 0 0 0 0 0 0 0 0 0 0 0 0 0 0 0 0 0 0 0 0 -0 -0 -0 -0 0 0 0 0 0 0 0 0 0 0 0 0 0 0 0 1 1 0 0 0 0 0 0 0
0 0 0 0 0 0 0 0 0 0 0 0 0 0 0 0 0 0 0 0 0 -0 -0 -0 -0 -0 0 0 0 0 0 0 0 0 0 0 0 0 0 1 1 1 0 0 0 0 0 0 0
0 0 0 0 0 0 0 0 0 0 0 0 0 1 1 1 1 0 0 0 0 -0 -0 -0 0 0 0 0 0 0 0 0 1 1 1 1 1 1 1 1 1 1 1 1 1 1 1 1 1
0 0 0 0 0 0 0 0 0 0 0 0 1 1 1 1 1 0 0 0 0 -0 -0 0 0 0 0 0 0 0 1 1 1 1 1 1 1 1 1 1 1 1 1 1 1 1 1 1 1
0 0 0 0 0 0 0 0 0 0 0 1 1 1 1 1 1 1 0 0 0 0 0 0 0 0 1 1 1 1 1 1 1 1 1 1 1 1 1 1 1 1 1 1 1 1 1 1 1
0 0 0 0 0 0 0 0 0 0 1 1 1 1 1 1 1 1 1 1 0 0 0 0 0 1 1 1 1 1 1 1 1 1 1 1 1 1 1 1 1 1 1 1 1 1 2 2 2
0 0 0 0 0 0 0 0 0 1 1 1 1 1 1 1 1 1 1 1 1 0 1 1 1 1 1 1 1 1 1 1 1 1 1 1 1 1 1 1 1 1 1 1 1 2 2 2 2
0 0 0 0 0 0 0 0 1 1 1 1 1 2 2 2 1 1 1 1 1 1 1 1 1 1 1 1 1 1 1 1 1 1 1 1 1 1 1 1 1 1 1 1 1 2 2 2 2
0 0 0 0 0 0 0 0 1 1 1 1 2 2 2 2 2 2 1 1 1 1 1 1 1 1 1 1 1 0 0 0 0 1 1 1 0 1 1 1 1 1 1 1 1 2 2 2 2
0 0 0 0 0 0 0 0 1 1 1 1 2 2 2 2 2 2 2 2 2 2 1 1 1 0 0 0 0 0 0 0 0 0 0 0 0 0 0 0 1 1 1 1 1 1 2 2 2
0 0 0 0 0 0 0 0 1 1 1 1 1 2 2 2 2 2 2 2 2 2 1 1 0 0 0 0 0 0 0 0 0 0 0 0 0 0 0 0 0 1 1 1 1 1 1 1 2
0 0 0 0 0 0 0 0 0 0 1 1 1 1 2 2 2 2 2 2 2 1 1 1 0 0 0 0 0 0 0 0 0 0 0 0 0 0 0 0 0 0 0 1 1 1 1 1 1
0 0 0 0 0 0 0 0 0 0 1 1 1 2 2 2 2 2 2 2 1 1 1 0 0 1 1 1 1 1 0 0 0 0 0 0 0 0 0 0 0 0 0 0 1 1 1 1 1
0 0 0 0 0 0 0 0 0 0 1 1 1 1 2 2 2 1 1 1 1 1 0 0 1 1 1 1 1 1 1 0 0 0 0 0 0 0 0 0 0 0 0 0 0 1 1 1 1
0 0 0 0 0 0 0 0 0 0 0 1 1 1 1 1 1 1 1 0 0 0 0 1 1 1 1 1 1 1 1 1 1 0 0 0 0 0 0 0 0 0 0 0 0 0 0 1 1
0 0 0 0 0 0 0 0 0 0 0 0 0 0 0 0 0 0 0 0 0 0 0 1 1 1 1 1 1 1 1 1 1 1 0 0 0 0 0 0 0 0 0 0 0 0 0 0 1
0 0 0 0 0 0 0 0 0 0 0 0 0 0 0 0 0 0 0 0 0 0 0 1 1 1 1 1 2 2 1 1 1 1 1 0 0 0 0 0 0 0 0 0 0 0 0 0 0
-0 0 0 0 0 0 0 0 0 0 0 0 0 0 0 0 0 0 0 0 0 0 0 1 1 1 1 1 1 2 2 1 1 1 1 1 1 0 0 0 0 0 0 0 0 0 0 0 0
0 0 0 0 0 0 0 0 0 0 0 0 0 0 0 0 0 0 0 0 0 0 0 0 0 1 1 1 1 1 1 1 1 1 1 1 1 1 0 0 0 0 0 0 0 0 0 0 0
0 0 0 0 0 0 0 0 0 0 0 0 0 0 0 0 0 0 0 0 0 0 0 0 0 0 0 0 1 1 1 1 1 1 1 1 1 1 1 0 0 0 0 0 0 0 0 0 0
0 0 0 0 0 0 0 0 0 0 0 0 0 0 0 0 0 0 0 0 0 0 0 0 0 0 0 0 0 0 1 1 1 1 1 1 1 1 1 0 0 0 0 0 0 0 0 0 0
Wind_Speed
9 8 6 6 8 2 10 9 7 6 5 5 3 2 3 5 5 7 7 14 15 17 18 19 16 16 15 14 14 13 13 12 12 11 11 10 9 8 8 7 6 6 5 5 5 5 5 6 6
5 5 6 7 4 7 10 7 8 8 7 4 4 2 3 6 7 8 10 14 16 17 17 17 18 16 15 14 13 13 12 12 11 11 10 9 9 8 7 6 5 5 4 4 4 4 4 4 4
5 6 7 6 2 7 8 7 6 6 4 2 3 4 5 6 6 6 11 16 16 16 15 17 18 16 15 14 13 13 12 11 11 10 10 9 8 7 7 6 5 4 3 3 3 3 3 3 3
5 6 7 5 5 6 4 4 3 3 3 3 3 6 7 6 4 8 14 16 17 16 15 18 18 16 15 14 13 12 12 11 11 10 9 9 8 7 6 6 5 4 4 4 3 3 3 3 4
6 7 7 3 4 4 3 3 1 1 3 4 3 7 8 6 7 13 15 16 16 16 14 18 17 16 15 14 13 13 12 11 11 10 10 9 8 8 7 7 6 6 5 5 5 5 5 5 5
6 6 6 2 4 3 4 2 1 2 4 5 4 7 9 7 9 13 14 14 14 14 13 16 16 15 15 14 13 13 12 11 11 11 10 10 9 9 8 8 8 8 8 8 7 7 7 7 7
7 6 4 1 3 3 4 3 0 1 3 4 3 6 10 10 10 12 12 12 12 13 12 13 15 14 14 13 13 12 12 11 11 11 10 10 10 10 10 10 10 10 10 9 9 9 9 9 9
6 7 6 4 3 3 4 2 1 2 4 5 2 3 9 13 13 13 12 11 11 11 11 11 12 12 12 13 13 12 11 11 11 11 11 11 11 12 12 12 12 12 11 11 11 11 11 10 10
6 8 7 3 2 2 3 1 2 1 6 5 2 4 9 18 16 14 12 11 11 10 10 10 11 10 10 10 11 12 12 12 11 12 13 12 11 12 11 14 10 11 12 12 12 12 12 11 12
7 10 4 2 3 3 3 2 2 5 7 7 7 8 13 17 16 15 14 14 14 13 12 10 10 10 10 7 7 8 10 10 10 9 9 9 9 8 8 3 7 11 13 13 14 13 12 13 10
7 8 3 2 3 6 4 2 3 6 6 6 8 13 16 17 16 15 14 13 12 12 12 11 10 9 9 7 6 5 5 5 8 10 9 8 8 7 7 6 7 10 13 12 11 13 11 10 8
7 7 6 6 5 7 6 5 4 6 2 3 3 13 17 17 16 15 13 12 11 12 12 11 11 9 8 7 5 5 5 5 6 7 9 8 6 7 7 6 7 6 6 7 8 7 9 9 10
9 7 6 7 8 9 9 8 6 3 3 1 6 13 16 16 14 13 12 11 10 10 11 10 9 9 8 7 6 6 6 6 7 6 7 8 8 8 8 6 6 8 7 7 8 8 9 9 10
5 8 10 9 8 6 8 7 7 1 1 3 8 12 14 14 14 13 12 11 10 10 10 9 10 9 8 7 7 6 7 6 7 7 8 9 8 8 8 8 8 8 8 8 7 9 9 8 8
6 10 10 7 6 4 7 10 5 2 2 5 7 9 10 10 11 12 11 10 9 9 8 8 9 9 9 9 9 7 7 7 7 7 8 9 10 9 9 9 9 8 8 9 8 10 8 9 9
8 11 12 5 2 3 8 12 4 1 3 5 6 7 8 9 9 9 9 8 7 7 7 7 6 7 8 7 7 6 6 7 7 7 7 9 10 10 9 9 10 9 8 8 8 8 8 9 9
10 11 9 4 2 2 8 5 5 1 3 4 5 6 7 8 8 7 8 8 7 6 6 6 5 5 5 5 5 6 5 6 6 6 6 7 9 10 9 9 9 9 8 8 9 8 8 9 9
5 6 5 4 3 2 3 1 3 3 2 4 4 5 6 7 7 7 7 7 7 6 6 5 5 4 4 3 3 3 3 4 4 4 4 6 7 8 8 8 9 9 8 8 8 10 9 9 9
2 4 3 1 2 2 0 1 3 3 2 3 3 4 5 5 5 6 6 6 7 6 6 5 5 4 3 2 1 1 1 2 2 3 3 5 6 7 7 8 8 8 8 9 10 9 11 10 8
5 5 3 3 1 3 2 2 2 2 1 1 1 2 3 5 6 6 5 6 6 6 6 6 6 5 4 2 1 1 2 3 3 3 3 5 6 7 7 7 8 8 8 10 10 10 9 9 7
3 3 2 3 1 5 6 8 7 5 2 1 0 1 2 3 5 5 4 5 5 5 5 4 3 4 4 3 3 2 3 4 3 3 3 4 6 7 7 8 8 8 9 8 9 10 11 10 9
2 2 4 5 8 6 5 10 6 4 3 2 1 0 1 2 2 2 2 2 2 2 2 3 3 4 4 5 4 4 4 4 4 4 3 5 6 7 7 7 8 8 9 9 10 10 9 11 10
4 2 5 8 10 11 8 10 2 5 1 5 5 2 2 2 3 3 3 3 2 2 3 3 4 4 4 4 4 6 6 5 4 4 5 6 5 6 7 7 7 8 9 9 10 11 11 10 10
1 5 7 9 9 10 3 8 2 6 7 8 8 7 6 5 5 6 6 5 5 5 5 4 4 5 5 5 6 7 7 7 7 7 7 6 5 5 6 7 7 8 8 9 10 11 13 11 12
6 9 7 6 6 3 2 7 5 8 8 9 9 9 9 8 8 8 9 8 8 7 7 6 6 6 6 6 7 7 8 8 9 9 7 7 7 6 5 7 7 8 8 10 10 11 12 12 13
7 9 9 8 8 5 5 5 8 8 7 8 9 10 11 12 11 11 11 11 11 11 10 9 8 7 7 7 7 7 8 8 8 7 8 8 7 7 7 8 9 9 10 11 10 10 12 11 11
8 7 7 10 11 10 6 5 9 7 7 8 10 11 12 12 12 12 12 13 13 12 12 12 10 9 9 8 8 7 7 8 9 9 9 9 7 7 8 9 10 10 10 10 11 10 11 11 11
6 7 6 8 8 10 7 6 4 8 6 7 8 10 10 10 11 11 11 11 11 11 11 11 11 11 10 10 9 8 8 8 9 9 10 10 10 9 9 10 10 10 10 10 10 11 10 10 10
4 4 6 7 8 11 12 4 9 7 5 5 7 8 8 9 10 10 10 10 10 10 11 11 11 11 10 11 10 10 10 10 10 9 10 10 10 10 10 10 10 10 11 10 10 11 10 10 10
4 4 5 7 8 8 12 2 9 7 5 5 6 7 8 8 9 9 10 10 10 10 10 10 10 10 11 11 11 11 11 11 12 11 11 11 11 11 11 10 10 10 10 10 10 10 9 9 9
Wind_Direction
182 194 219 235 236 135 76 70 57 67 69 57 65 16 13 16 357 50 106 147 148 147 144 155 161 162 159 155 151 150 150 150 150 149 148 147 146 143 140 137 133 128 123 120 118 118 117 117 119
193 199 230 241 256 89 80 66 63 54 71 86 87 55 50 62 47 92 133 144 150 148 149 158 159 164 162 159 157 156 157 157 156 155 155 155 154 153 153 150 147 144 139 136 137 137 136 134 135
203 228 261 254 46 62 76 66 66 79 73 44 69 48 39 55 83 113 132 149 152 149 153 150 161 167 166 164 163 163 164 164 164 164 165 165 166 167 168 168 169 173 172 170 173 176 171 167 168
220 230 239 248 92 66 42 50 72 105 93 66 86 91 83 56 83 120 139 153 153 155 157 148 166 169 169 169 169 171 171 172 173 175 176 178 180 183 187 189 194 203 212 216 216 217 216 212 211
246 262 249 195 99 75 56 28 112 87 73 90 90 94 92 82 99 129 148 156 159 159 156 151 168 171 173 175 176 178 180 181 184 186 188 191 195 200 205 210 216 224 232 239 243 242 240 236 234
253 257 259 177 105 91 67 45 199 108 107 124 120 109 97 111 129 144 151 161 161 158 159 149 166 175 178 180 183 186 189 191 194 197 200 204 209 215 220 226 230 233 235 239 245 249 249 247 244
281 286 280 253 138 118 50 7 245 125 142 116 117 112 120 139 140 146 149 165 161 162 162 157 169 177 183 188 191 194 199 202 205 209 212 215 220 224 229 234 238 240 240 240 243 246 249 249 247
287 276 237 211 195 99 47 19 11 220 119 114 163 135 143 151 150 150 154 162 163 167 170 171 175 179 186 189 194 203 209 214 218 222 225 228 231 232 233 236 230 237 244 246 246 247 249 250 248
262 256 237 209 212 88 45 307 138 131 135 144 108 43 112 140 152 154 157 164 171 178 181 186 179 186 196 201 186 198 210 218 224 226 226 234 241 237 222 229 223 232 242 247 249 249 249 251 242
244 253 242 30 329 336 341 279 183 189 178 165 140 113 130 148 159 165 171 174 177 184 187 195 191 191 201 210 191 212 215 211 221 236 230 231 242 257 264 228 221 243 249 252 249 251 251 245 246
246 263 297 276 311 310 295 274 233 231 207 188 172 154 157 163 169 175 181 182 181 187 191 194 197 202 209 209 217 219 230 227 229 237 243 251 263 255 250 248 219 227 235 242 235 232 239 241 244
255 258 276 286 312 296 297 286 256 254 335 26 152 157 165 173 178 181 182 185 182 192 196 197 196 200 215 228 227 231 236 233 242 236 242 247 248 260 263 262 268 261 244 243 256 251 251 254 257
244 258 268 279 282 284 280 267 271 271 352 73 143 162 174 179 179 181 181 185 186 195 200 200 204 206 209 220 238 240 246 253 248 254 249 253 257 259 263 264 261 265 265 254 247 257 260 257 255
283 284 274 270 272 260 256 253 239 223 359 159 163 171 179 180 178 178 182 187 192 198 199 200 206 210 214 220 228 240 250 245 260 256 256 255 258 262 266 264 262 263 264 264 263 261 262 260 257
272 266 252 240 253 244 253 240 227 358 232 185 177 174 174 176 179 185 186 191 196 198 196 198 205 213 217 228 236 242 248 253 255 261 261 258 260 262 263 268 267 266 267 264 259 261 259 256 252
239 243 241 192 275 212 244 247 101 13 207 186 172 168 168 171 183 185 185 192 195 198 195 200 211 211 220 231 245 255 261 267 267 268 268 266 269 268 266 266 266 267 265 262 259 258 255 254 253
218 234 240 196 49 255 246 266 69 54 184 169 167 166 166 166 177 180 184 187 186 189 189 196 206 217 225 232 242 255 267 271 275 276 276 281 280 279 274 273 276 276 270 264 261 256 256 257 255
220 235 227 239 39 304 250 150 90 80 134 141 155 160 164 169 169 173 182 180 173 172 174 175 187 194 210 218 226 254 264 269 273 282 292 297 292 291 289 280 279 279 274 270 265 265 259 258 258
271 254 239 70 28 308 12 138 106 92 123 135 148 159 164 166 156 169 172 169 162 158 166 171 172 166 191 190 238 257 268 285 287 290 317 306 304 304 294 291 294 284 279 279 276 271 266 259 254
221 228 218 161 75 298 278 247 146 122 96 44 187 192 176 167 164 164 162 161 158 159 164 171 176 172 187 169 204 267 307 297 312 311 311 305 309 307 297 302 296 294 292 283 279 273 269 264 249
213 272 311 313 278 230 260 235 192 162 155 125 243 238 204 178 165 153 154 157 158 160 171 174 173 183 198 198 212 215 227 246 255 285 289 309 310 304 304 301 297 299 290 288 287 280 269 267 260
247 17 303 289 279 275 272 277 194 165 163 95 52 196 191 145 131 118 129 135 156 170 188 200 208 214 215 224 238 261 282 296 313 301 306 302 293 297 299 295 295 294 292 292 284 280 277 271 266
354 348 285 285 281 275 243 265 189 128 88 31 26 42 50 50 44 33 22 14 355 315 272 246 242 245 244 252 259 264 270 287 292 295 291 290 289 285 289 294 295 292 288 291 291 288 279 271 266
213 241 245 250 261 256 253 279 214 67 15 10 27 36 41 38 30 25 18 15 359 345 326 304 284 273 267 262 265 268 281 286 291 290 295 289 290 285 287 291 291 289 291 291 286 284 278 272 270
242 278 278 265 250 262 112 268 69 60 40 32 34 38 38 36 30 24 15 8 1 353 344 334 322 307 296 281 273 270 273 275 270 275 282 287 293 294 300 298 293 291 290 286 284 281 280 276 271
295 291 290 300 302 304 225 255 95 86 71 60 53 48 44 40 33 27 20 14 8 3 358 349 342 332 325 310 295 283 277 272 273 274 285 286 288 296 305 292 287 288 287 285 283 280 277 274 273
290 278 309 287 278 279 271 125 131 125 89 68 57 50 42 36 33 29 25 21 16 12 8 0 354 349 342 329 317 300 290 285 287 285 272 274 276 283 284 286 285 286 285 284 285 279 280 279 274
301 304 262 269 287 285 276 251 172 136 91 68 52 43 38 31 29 26 23 20 17 13 11 7 4 359 351 340 330 320 309 296 287 281 281 280 279 276 276 279 282 283 283 282 282 282 281 279 275
276 249 283 284 287 293 294 330 63 89 75 53 46 35 26 19 17 15 13 10 7 5 2 360 356 355 350 344 335 326 319 311 299 286 281 276 272 270 268 272 276 279 281 282 280 280 281 279 277
284 308 291 291 294 283 285 1 83 87 74 40 24 16 9 1 359 0 359 356 354 351 348 345 344 343 340 338 332 328 323 319 310 299 291 283 275 267 263 266 268 273 278 281 281 282 284 282 279